When you browse on this site, cookies collect data to enhance your experience and personalize the content and advertising you see.
Visit our Privacy Policy to learn more. By continuing to use the site, you agree to this use of cookies and data.
  • In Österreich
  • Länderverzeichnis
  • Für 7 Tage
  • Wassertemperatur
  • Satellitenkarten
  • Wetterkarte
  • News
  • Widgets
  • user-avatar
    Anmelden

    Stündliche Wetter Rokupr

    Heute, 25 April, Donnerstag

    Zeit Temperatur Niederschläge Wind Luftdruck Luftfeuchtigkeit
    00:00 +28°C° 0 mm 1 m/S 757 mmHg 70%
    01:00 +27°C° 0 mm 1 m/S 757 mmHg 71%
    02:00 +27°C° 0 mm 1 m/S 757 mmHg 72%
    03:00 +27°C° 0 mm 1 m/S 757 mmHg 73%
    04:00 +26°C° 0 mm 1 m/S 757 mmHg 74%
    05:00 +24°C° 0 mm 0 m/S 757 mmHg 75%
    06:00 +28°C° 0 mm 1 m/S 757 mmHg 67%
    07:00 +30°C° 0 mm 1 m/S 757 mmHg 59%
    08:00 +32°C° 0 mm 1 m/S 757 mmHg 51%
    09:00 +34°C° 0 mm 1 m/S 757 mmHg 43%
    10:00 +38°C° 0 mm 2 m/S 757 mmHg 35%
    11:00 +40°C° 0 mm 2 m/S 756 mmHg 26%
    12:00 +41°C° 0 mm 2 m/S 756 mmHg 26%
    13:00 +41°C° 0 mm 2 m/S 755 mmHg 25%
    14:00 +42°C° 0 mm 2 m/S 754 mmHg 25%
    15:00 +40°C° 0 mm 3 m/S 754 mmHg 30%
    16:00 +38°C° 0 mm 3 m/S 754 mmHg 34%
    17:00 +36°C° 0 mm 4 m/S 753 mmHg 39%
    18:00 +34°C° 0 mm 4 m/S 754 mmHg 46%
    19:00 +33°C° 0 mm 3 m/S 755 mmHg 54%
    20:00 +30°C° 0 mm 3 m/S 755 mmHg 61%
    21:00 +30°C° 0 mm 2 m/S 756 mmHg 64%
    22:00 +29°C° 0 mm 1 m/S 756 mmHg 67%
    23:00 +29°C° 0 mm 1 m/S 757 mmHg 70%

    Morgen, 26 April, Freitag

    Zeit Temperatur Niederschläge Wind Luftdruck Luftfeuchtigkeit
    00:00 +28°C° 0 mm 1 m/S 756 mmHg 72%
    01:00 +28°C° 0 mm 1 m/S 756 mmHg 73%
    02:00 +28°C° 0 mm 1 m/S 756 mmHg 75%
    03:00 +26°C° 0 mm 0 m/S 756 mmHg 76%
    04:00 +25°C° 0 mm 0 m/S 756 mmHg 77%
    05:00 +25°C° 0 mm 0 m/S 756 mmHg 77%
    06:00 +27°C° 0 mm 0 m/S 756 mmHg 69%
    07:00 +31°C° 0 mm 1 m/S 757 mmHg 61%
    08:00 +33°C° 0 mm 1 m/S 757 mmHg 53%
    09:00 +35°C° 0 mm 1 m/S 757 mmHg 47%
    10:00 +38°C° 0 mm 2 m/S 757 mmHg 41%
    11:00 +39°C° 0 mm 2 m/S 757 mmHg 34%
    12:00 +40°C° 0 mm 2 m/S 756 mmHg 34%
    13:00 +40°C° 0 mm 3 m/S 755 mmHg 33%
    14:00 +42°C° 0 mm 3 m/S 754 mmHg 33%
    15:00 +39°C° 0 mm 3 m/S 754 mmHg 36%
    16:00 +37°C° 0 mm 4 m/S 754 mmHg 39%
    17:00 +35°C° 0 mm 4 m/S 754 mmHg 42%
    18:00 +34°C° 0.1 mm 4 m/S 754 mmHg 50%
    19:00 +31°C° 0.1 mm 3 m/S 755 mmHg 57%
    20:00 +30°C° 0.1 mm 3 m/S 755 mmHg 64%
    21:00 +30°C° 0.1 mm 2 m/S 755 mmHg 67%
    22:00 +29°C° 0.1 mm 2 m/S 756 mmHg 69%
    23:00 +29°C° 0.1 mm 1 m/S 756 mmHg 71%

    übermorgen, 27 April, Samstag

    Zeit Temperatur Niederschläge Wind Luftdruck Luftfeuchtigkeit
    00:00 +29°C° 1.1 mm 1 m/S 756 mmHg 75%
    01:00 +28°C° 1.1 mm 1 m/S 756 mmHg 78%
    02:00 +26°C° 1.1 mm 0 m/S 756 mmHg 82%
    03:00 +25°C° 0.1 mm 0 m/S 756 mmHg 82%
    04:00 +27°C° 0.1 mm 1 m/S 756 mmHg 83%
    05:00 +27°C° 0.1 mm 1 m/S 756 mmHg 83%
    06:00 +28°C° 0.1 mm 1 m/S 756 mmHg 79%
    07:00 +28°C° 0.1 mm 1 m/S 756 mmHg 74%
    08:00 +29°C° 0.1 mm 1 m/S 757 mmHg 70%
    09:00 +31°C° 0 mm 1 m/S 757 mmHg 61%
    10:00 +34°C° 0 mm 2 m/S 757 mmHg 53%
    11:00 +36°C° 0 mm 2 m/S 757 mmHg 44%
    12:00 +37°C° 0 mm 2 m/S 756 mmHg 41%
    13:00 +38°C° 0 mm 3 m/S 755 mmHg 38%
    14:00 +39°C° 0 mm 3 m/S 754 mmHg 34%
    15:00 +38°C° 0 mm 3 m/S 754 mmHg 37%
    16:00 +36°C° 0 mm 4 m/S 754 mmHg 40%
    17:00 +35°C° 0 mm 4 m/S 754 mmHg 43%
    18:00 +33°C° 0.2 mm 3 m/S 754 mmHg 50%
    19:00 +31°C° 0.2 mm 3 m/S 755 mmHg 58%
    20:00 +29°C° 0.2 mm 3 m/S 756 mmHg 66%
    21:00 +29°C° 0.1 mm 2 m/S 756 mmHg 68%
    22:00 +29°C° 0.1 mm 2 m/S 756 mmHg 70%
    23:00 +29°C° 0.1 mm 2 m/S 756 mmHg 73%

    28 April, Sonntag

    Zeit Temperatur Niederschläge Wind Luftdruck Luftfeuchtigkeit
    00:00 +28°C° 0.1 mm 2 m/S 756 mmHg 74%
    01:00 +28°C° 0.1 mm 2 m/S 755 mmHg 76%
    02:00 +28°C° 0.1 mm 1 m/S 755 mmHg 77%
    03:00 +28°C° 0.1 mm 1 m/S 755 mmHg 78%
    04:00 +28°C° 0.1 mm 1 m/S 755 mmHg 79%
    05:00 +27°C° 0.1 mm 1 m/S 755 mmHg 80%
    06:00 +29°C° 0 mm 1 m/S 756 mmHg 74%
    07:00 +30°C° 0 mm 1 m/S 756 mmHg 67%
    08:00 +31°C° 0 mm 2 m/S 757 mmHg 61%
    09:00 +34°C° 0 mm 2 m/S 757 mmHg 53%
    10:00 +36°C° 0 mm 2 m/S 756 mmHg 45%
    11:00 +38°C° 0 mm 2 m/S 756 mmHg 36%
    12:00 +38°C° 0 mm 3 m/S 755 mmHg 35%
    13:00 +38°C° 0 mm 3 m/S 755 mmHg 34%
    14:00 +40°C° 0 mm 4 m/S 754 mmHg 33%
    15:00 +37°C° 0 mm 4 m/S 754 mmHg 37%
    16:00 +36°C° 0 mm 4 m/S 754 mmHg 41%
    17:00 +34°C° 0 mm 4 m/S 753 mmHg 46%
    18:00 +33°C° 0 mm 4 m/S 754 mmHg 52%
    19:00 +31°C° 0 mm 3 m/S 755 mmHg 59%
    20:00 +30°C° 0 mm 3 m/S 755 mmHg 66%
    21:00 +29°C° 0 mm 2 m/S 756 mmHg 68%
    22:00 +29°C° 0 mm 2 m/S 756 mmHg 70%
    23:00 +29°C° 0 mm 2 m/S 756 mmHg 72%

    29 April, Montag

    Zeit Temperatur Niederschläge Wind Luftdruck Luftfeuchtigkeit
    00:00 +28°C° 0 mm 1 m/S 755 mmHg 73%
    01:00 +28°C° 0 mm 1 m/S 755 mmHg 75%
    02:00 +28°C° 0 mm 1 m/S 755 mmHg 77%
    03:00 +28°C° 0 mm 1 m/S 755 mmHg 78%
    04:00 +27°C° 0 mm 1 m/S 755 mmHg 78%
    05:00 +27°C° 0 mm 1 m/S 755 mmHg 79%
    06:00 +29°C° 0 mm 1 m/S 755 mmHg 73%
    07:00 +30°C° 0 mm 1 m/S 756 mmHg 66%
    08:00 +32°C° 0 mm 1 m/S 757 mmHg 59%
    09:00 +34°C° 0 mm 1 m/S 756 mmHg 52%
    10:00 +37°C° 0 mm 2 m/S 756 mmHg 44%
    11:00 +39°C° 0 mm 2 m/S 756 mmHg 37%
    12:00 +39°C° 0 mm 3 m/S 755 mmHg 36%
    13:00 +39°C° 0 mm 3 m/S 754 mmHg 35%
    14:00 +40°C° 0 mm 4 m/S 753 mmHg 34%
    15:00 +38°C° 0 mm 4 m/S 753 mmHg 38%
    16:00 +37°C° 0 mm 4 m/S 753 mmHg 42%
    17:00 +35°C° 0 mm 4 m/S 754 mmHg 45%
    18:00 +34°C° 0 mm 3 m/S 754 mmHg 52%
    19:00 +33°C° 0 mm 3 m/S 755 mmHg 59%
    20:00 +31°C° 0 mm 3 m/S 756 mmHg 65%
    21:00 +30°C° 0.3 mm 2 m/S 756 mmHg 69%
    22:00 +30°C° 0.3 mm 1 m/S 756 mmHg 72%
    23:00 +30°C° 0.3 mm 1 m/S 756 mmHg 75%

    30 April, Dienstag

    Zeit Temperatur Niederschläge Wind Luftdruck Luftfeuchtigkeit
    00:00 +29°C° 0 mm 1 m/S 756 mmHg 76%
    01:00 +27°C° 0 mm 0 m/S 755 mmHg 77%
    02:00 +27°C° 0 mm 0 m/S 755 mmHg 79%
    03:00 +27°C° 0 mm 0 m/S 755 mmHg 79%
    04:00 +27°C° 0 mm 0 m/S 755 mmHg 80%
    05:00 +27°C° 0 mm 0 m/S 756 mmHg 81%
    06:00 +30°C° 0 mm 1 m/S 756 mmHg 77%
    07:00 +31°C° 0 mm 1 m/S 757 mmHg 72%
    08:00 +32°C° 0 mm 2 m/S 757 mmHg 67%
    09:00 +34°C° 0.1 mm 2 m/S 757 mmHg 65%
    10:00 +34°C° 0.1 mm 2 m/S 757 mmHg 63%
    11:00 +34°C° 0.1 mm 3 m/S 757 mmHg 61%
    12:00 +35°C° 0.3 mm 3 m/S 756 mmHg 60%
    13:00 +35°C° 0.3 mm 3 m/S 755 mmHg 59%
    14:00 +35°C° 0.3 mm 3 m/S 755 mmHg 58%
    15:00 +35°C° 0.4 mm 3 m/S 755 mmHg 60%
    16:00 +34°C° 0.4 mm 3 m/S 755 mmHg 62%
    17:00 +34°C° 0.4 mm 3 m/S 755 mmHg 64%
    18:00 +33°C° 0 mm 3 m/S 755 mmHg 68%
    19:00 +31°C° 0 mm 2 m/S 756 mmHg 72%
    20:00 +30°C° 0 mm 2 m/S 757 mmHg 76%
    21:00 +30°C° 1.1 mm 2 m/S 757 mmHg 78%
    22:00 +29°C° 1.1 mm 2 m/S 757 mmHg 80%
    23:00 +29°C° 1.1 mm 2 m/S 757 mmHg 83%
    Mehr zeigen